Location: Maccacari
(45.1333°N, 11.1333°E)
Time: 01:51:15
(UTC+00:00)

Tiros 1 despin weight - Pass Details

Date: 24 January 2021
Orbit: 593 x 642 km, 48.2° (Epoch: 07 March)

Event Time Altitude Azimuth Distance (km) Brightness Sun altitude
Rises 18:37:35 0° 290° (WNW) 2,853 ? -25.5°
Reaches altitude 10° 18:39:55 10° 287° (WNW) 1,941 ? -26.0°
Enters shadow 18:43:48 56° 240° (WSW) 711 ? -26.6°
Maximum altitude 18:44:18 61° 208° (SSW) 680 - -26.7°
Drops below altitude 10° 18:48:38 10° 128° (SE) 1,919 - -27.5°
Sets 18:50:55 0° 125° (SE) 2,816 - -27.9°
